GW4049 Weather Reports


Display with metric or nautical units.
time (UTC)temp
F
wind
direction
speed
MPH
gust
MPH
rain 1hr
in
rain 24hr
in
rain mn
in
humidity
%
barometer
mb
20260901230621 64 338 0.0 4.0 0.00 0.05 0.05 49 1031.8
20260901230121 64 67 2.0 8.0 0.00 0.05 0.05 49 1031.8
20260901225616 65 25 3.0 6.0 0.00 0.05 0.05 48 1031.5
20260901225116 66 242 0.0 3.0 0.00 0.05 0.05 46 1031.5
20260901224612 67 263 0.0 4.0 0.00 0.05 0.05 41 1031.8
20260901224108 67 256 1.0 2.0 0.00 0.05 0.05 42 1031.8
20260901223603 66 324 1.0 3.0 0.00 0.05 0.05 42 1031.8
20260901223058 64 331 1.0 3.0 0.00 0.05 0.05 46 1031.6
20260901222554 64 276 1.0 3.0 0.00 0.05 0.05 46 1031.5
20260901222050 64 49 2.0 4.0 0.00 0.05 0.05 47 1031.6
20260901221546 64 267 1.0 3.0 0.00 0.05 0.05 45 1031.9
20260901221041 64 272 0.0 3.0 0.00 0.05 0.05 46 1031.6
20260901220541 64 332 0.0 3.0 0.00 0.05 0.05 46 1032.1
20260901220040 64 351 2.0 8.0 0.00 0.05 0.05 46 1031.8
20260901215538 64 10 4.0 7.0 0.00 0.05 0.05 44 1031.9
20260901215032 65 302 5.0 8.0 0.00 0.05 0.05 44 1032.0
20260901214531 65 283 4.0 8.0 0.00 0.05 0.05 44 1032.3
20260901214026 64 348 4.0 4.0 0.00 0.05 0.05 45 1032.0
20260901213525 65 10 2.0 3.0 0.00 0.05 0.05 44 1032.1
20260901213020 65 307 3.0 7.0 0.00 0.05 0.05 44 1032.0
20260901212520 65 318 2.0 6.0 0.00 0.05 0.05 46 1032.3
20260901212017 66 260 1.0 1.0 0.00 0.05 0.05 43 1032.3
20260901211511 66 340 9.0 14.0 0.00 0.05 0.05 43 1032.3
20260901211008 66 317 9.0 13.0 0.00 0.05 0.05 44 1032.0
20260901210503 66 3 9.0 13.0 0.00 0.05 0.05 44 1032.1
20260901205959 67 294 9.0 13.0 0.00 0.05 0.05 43 1032.0
20260901205454 65 327 7.0 13.0 0.00 0.05 0.05 44 1032.4
20260901204948 64 303 5.0 9.0 0.00 0.05 0.05 49 1032.3
20260901204446 65 346 5.0 6.0 0.00 0.05 0.05 47 1032.3
20260901203944 66 330 3.0 6.0 0.00 0.05 0.05 50 1032.3
20260901203434 67 299 1.0 2.0 0.00 0.05 0.05 44 1032.1
20260901202929 67 275 3.0 6.0 0.00 0.05 0.05 38 1032.5
20260901202424 69 337 3.0 7.0 0.00 0.05 0.05 38 1032.3
20260901201920 71 340 2.0 7.0 0.00 0.05 0.05 33 1032.4
20260901201414 70 333 1.0 6.0 0.00 0.05 0.05 34 1032.5
20260901200908 69 260 4.0 6.0 0.00 0.05 0.05 34 1032.5
20260901200403 69 148 10.0 13.0 0.00 0.05 0.05 34 1032.0
20260901195902 68 49 4.0 7.0 0.00 0.05 0.05 37 1032.1
20260901195355 69 330 3.0 7.0 0.00 0.05 0.05 37 1032.5
20260901194850 69 241 4.0 8.0 0.00 0.05 0.05 35 1032.3
20260901194344 69 228 2.0 7.0 0.00 0.05 0.05 37 1032.4
20260901193842 68 112 4.0 14.0 0.00 0.05 0.05 37 1032.4
20260901193340 70 224 5.0 9.0 0.00 0.05 0.05 35 1032.7
20260901192835 68 351 3.0 8.0 0.00 0.05 0.05 38 1032.5
20260901192330 67 323 3.0 6.0 0.00 0.05 0.05 41 1032.1
20260901191826 67 330 9.0 10.0 0.00 0.05 0.05 37 1032.4
20260901191321 68 16 4.0 8.0 0.00 0.05 0.05 39 1032.3
20260901190817 68 287 2.0 11.0 0.00 0.05 0.05 38 1032.4
20260901190311 67 311 5.0 8.0 0.00 0.05 0.05 42 1032.7
20260901185810 68 320 9.0 14.0 0.00 0.05 0.05 41 1032.8
20260901185309 69 246 3.0 10.0 0.00 0.05 0.05 38 1032.8
20260901184805 67 301 7.0 10.0 0.00 0.05 0.05 39 1032.5
20260901184300 71 302 4.0 6.0 0.00 0.05 0.05 38 1032.7
20260901183755 68 259 0.0 6.0 0.00 0.05 0.05 36 1032.8
20260901183255 68 233 4.0 6.0 0.00 0.05 0.05 36 1032.8
20260901182751 68 338 8.0 11.0 0.00 0.05 0.05 40 1033.1
20260901182250 67 257 5.0 7.0 0.00 0.05 0.05 40 1032.8
20260901181745 67 234 9.0 10.0 0.00 0.05 0.05 38 1032.5
20260901181240 66 260 2.0 3.0 0.00 0.05 0.05 39 1033.1
20260901180739 67 281 0.0 7.0 0.00 0.05 0.05 38 1032.9
20260901180238 66 266 0.0 3.0 0.00 0.05 0.05 39 1032.9
20260901175737 67 183 2.0 9.0 0.00 0.05 0.05 41 1032.9
20260901175233 64 321 2.0 4.0 0.00 0.05 0.05 42 1033.1
20260901174727 66 244 3.0 4.0 0.00 0.05 0.05 42 1033.2
20260901174224 65 250 3.0 4.0 0.00 0.05 0.05 43 1033.2
20260901173719 64 284 3.0 4.0 0.00 0.05 0.05 43 1033.3
20260901173213 65 341 3.0 4.0 0.00 0.05 0.05 46 1033.2
20260901172710 67 302 2.0 3.0 0.00 0.05 0.05 42 1033.2
20260901172208 64 287 1.0 10.0 0.00 0.05 0.05 45 1033.1
20260901171707 64 298 3.0 8.0 0.00 0.05 0.05 44 1033.2
20260901171201 64 273 5.0 13.0 0.00 0.05 0.05 44 1033.5
20260901170700 64 254 0.0 3.0 0.00 0.05 0.05 43 1033.5
20260901170155 63 356 3.0 6.0 0.00 0.05 0.05 46 1032.9
20260901165654 63 343 3.0 6.0 0.00 0.05 0.05 49 1033.5
20260901165149 62 50 1.0 6.0 0.00 0.05 0.05 48 1033.2
20260901164645 63 350 4.0 9.0 0.00 0.05 0.05 48 1033.3
20260901164140 64 254 0.0 2.0 0.00 0.05 0.05 44 1033.2
20260901163635 64 270 2.0 4.0 0.00 0.05 0.05 47 1033.2
20260901163134 63 253 2.0 2.0 0.00 0.05 0.05 44 1033.1
20260901162630 63 224 2.0 3.0 0.00 0.05 0.05 48 1032.9
20260901162124 63 243 0.0 2.0 0.00 0.05 0.05 46 1033.2
20260901161623 62 212 2.0 4.0 0.00 0.05 0.05 46 1032.9
20260901161122 63 90 3.0 3.0 0.00 0.05 0.05 47 1033.1
20260901160619 64 263 0.0 0.0 0.00 0.05 0.05 48 1032.8
20260901160114 62 284 3.0 3.0 0.00 0.05 0.05 51 1033.2
20260901155613 62 292 4.0 4.0 0.00 0.05 0.05 51 1033.2
20260901155109 61 271 2.0 2.0 0.00 0.05 0.05 54 1033.1
20260901154608 60 279 1.0 1.0 0.00 0.05 0.05 59 1033.1
20260901154103 60 281 2.0 4.0 0.00 0.05 0.05 57 1032.9
20260901153558 61 257 1.0 3.0 0.00 0.05 0.05 57 1033.2
20260901153057 59 251 0.0 3.0 0.00 0.05 0.05 56 1033.3
20260901152553 58 242 2.0 2.0 0.00 0.05 0.05 57 1033.3
20260901152051 57 255 0.0 1.0 0.00 0.05 0.05 64 1033.1
20260901151547 55 252 0.0 0.0 0.00 0.05 0.05 76 1033.1
20260901151046 54 256 0.0 0.0 0.00 0.05 0.05 84 1032.9
20260901150544 53 240 1.0 1.0 0.00 0.05 0.05 84 1033.3
20260901150038 53 234 2.0 2.0 0.00 0.05 0.05 86 1033.2
20260901145536 53 227 2.0 2.0 0.00 0.05 0.05 84 1032.8
20260901145030 52 228 2.0 2.0 0.00 0.05 0.05 84 1033.2
20260901144526 52 221 2.0 3.0 0.00 0.05 0.05 86 1032.8
20260901144021 51 206 2.0 3.0 0.00 0.05 0.05 89 1033.1
20260901143516 51 223 2.0 2.0 0.00 0.05 0.05 88 1033.1
20260901143014 51 228 2.0 2.0 0.00 0.05 0.05 87 1032.9
20260901142508 52 235 1.0 2.0 0.00 0.05 0.05 84 1033.2
20260901142003 51 213 2.0 3.0 0.00 0.05 0.05 74 1032.9
20260901141502 52 219 1.0 3.0 0.00 0.05 0.05 75 1033.1
20260901140958 52 200 3.0 3.0 0.00 0.05 0.05 77 1033.1
20260901140456 52 240 2.0 3.0 0.00 0.05 0.05 75 1033.1
20260901135950 52 224 2.0 3.0 0.00 0.05 0.05 76 1033.1
20260901135449 50 265 2.0 3.0 0.00 0.05 0.05 86 1033.1
20260901134946 51 219 2.0 3.0 0.00 0.05 0.05 84 1032.8
20260901134441 51 216 3.0 3.0 0.00 0.05 0.05 79 1032.8
20260901133936 50 213 3.0 3.0 0.00 0.05 0.05 83 1032.8
20260901133435 50 212 3.0 4.0 0.00 0.05 0.05 82 1032.7
20260901132934 51 219 3.0 3.0 0.00 0.05 0.05 78 1032.4
20260901132429 50 213 3.0 4.0 0.00 0.05 0.05 81 1032.7
20260901131928 50 215 3.0 4.0 0.00 0.05 0.05 85 1032.4
20260901131427 48 208 3.0 6.0 0.00 0.05 0.05 91 1032.1
20260901130923 48 198 3.0 3.0 0.00 0.05 0.05 93 1032.1
20260901130423 47 190 4.0 4.0 0.00 0.05 0.05 91 1032.0
20260901125920 48 206 3.0 4.0 0.00 0.05 0.05 94 1032.1
20260901125415 47 197 4.0 4.0 0.00 0.05 0.05 94 1031.8
20260901124914 47 201 4.0 4.0 0.00 0.05 0.05 95 1031.8
20260901124410 47 201 4.0 4.0 0.00 0.05 0.05 95 1031.8
20260901123905 47 202 3.0 4.0 0.00 0.05 0.05 96 1031.8
20260901123400 46 199 4.0 4.0 0.00 0.05 0.05 98 1031.5
20260901122858 47 206 3.0 3.0 0.00 0.05 0.05 98 1031.5
20260901122353 47 206 3.0 3.0 0.00 0.05 0.05 98 1031.5
20260901121852 47 204 3.0 3.0 0.00 0.05 0.05 98 1031.4
20260901121347 47 212 3.0 3.0 0.00 0.05 0.05 98 1031.4
20260901120842 47 216 2.0 3.0 0.00 0.05 0.05 98 1031.4
20260901120336 47 219 2.0 3.0 0.00 0.05 0.05 98 1031.2
20260901115832 47 211 2.0 3.0 0.00 0.05 0.05 98 1031.2
20260901115327 47 204 3.0 3.0 0.00 0.05 0.05 98 1031.4
20260901114825 47 200 3.0 3.0 0.00 0.05 0.05 97 1031.5
20260901114320 47 206 3.0 3.0 0.00 0.05 0.05 97 1031.5
20260901113818 47 207 3.0 3.0 0.00 0.05 0.05 97 1031.4
20260901113313 47 222 2.0 2.0 0.00 0.05 0.05 97 1031.6
20260901112808 48 224 2.0 2.0 0.00 0.05 0.05 96 1031.2
20260901112307 49 232 2.0 3.0 0.00 0.05 0.05 93 1031.4
20260901111802 49 224 5.0 6.0 0.00 0.05 0.05 90 1031.1
20260901111301 48 232 2.0 3.0 0.00 0.05 0.05 92 1031.0
20260901110800 50 207 3.0 4.0 0.00 0.05 0.05 90 1031.1
20260901110255 50 187 5.0 6.0 0.00 0.05 0.05 87 1031.2
20260901105752 50 223 2.0 6.0 0.00 0.05 0.05 88 1030.8
20260901105252 50 232 3.0 4.0 0.00 0.05 0.05 88 1031.4
20260901104747 50 210 5.0 6.0 0.00 0.05 0.05 89 1031.4
20260901104243 49 189 4.0 6.0 0.00 0.05 0.05 94 1031.5
20260901103743 48 213 2.0 6.0 0.00 0.05 0.05 94 1031.4
20260901103237 49 197 4.0 4.0 0.00 0.05 0.05 94 1031.5
20260901102732 48 217 4.0 6.0 0.00 0.05 0.05 95 1031.5
20260901102232 48 231 2.0 3.0 0.00 0.05 0.05 97 1031.5
20260901101729 48 226 2.0 3.0 0.00 0.05 0.05 96 1031.2
20260901101229 48 232 3.0 3.0 0.00 0.05 0.05 96 1031.5
20260901100728 49 207 3.0 3.0 0.00 0.05 0.05 95 1031.5
20260901100223 50 254 0.0 0.0 0.00 0.05 0.05 93 1031.5
20260901095721 50 221 2.0 4.0 0.00 0.05 0.05 89 1031.4
20260901095219 51 191 3.0 6.0 0.00 0.05 0.05 89 1031.9
20260901094719 50 177 3.0 7.0 0.00 0.05 0.05 90 1032.0
20260901094214 51 167 4.0 6.0 0.00 0.05 0.05 85 1032.0
20260901093709 51 224 4.0 8.0 0.00 0.05 0.05 87 1031.6
20260901093208 51 251 2.0 8.0 0.00 0.05 0.05 87 1031.8
20260901092704 51 185 4.0 7.0 0.00 0.05 0.05 87 1031.8
20260901092200 51 204 8.0 11.0 0.00 0.05 0.05 87 1031.8
20260901091650 51 220 4.0 6.0 0.00 0.05 0.05 88 1031.9
20260901091149 50 180 4.0 7.0 0.00 0.05 0.05 89 1032.0
20260901090644 51 205 2.0 4.0 0.00 0.05 0.05 89 1032.0
20260901090140 50 224 3.0 7.0 0.00 0.05 0.05 91 1032.1
20260901085636 49 242 2.0 2.0 0.00 0.05 0.05 94 1032.0
20260901085132 48 218 4.0 6.0 0.00 0.05 0.05 97 1032.1
20260901084628 48 233 2.0 4.0 0.00 0.05 0.05 98 1032.4
20260901084124 48 232 3.0 3.0 0.00 0.05 0.05 98 1032.3
20260901083624 48 240 1.0 2.0 0.00 0.05 0.05 98 1032.1
20260901083122 48 247 1.0 3.0 0.00 0.05 0.05 98 1032.3
20260901082617 48 222 2.0 2.0 0.00 0.05 0.05 98 1032.3
20260901082113 48 224 2.0 2.0 0.00 0.05 0.05 98 1032.1
20260901081608 48 237 1.0 2.0 0.00 0.05 0.05 98 1032.3
20260901081108 48 244 1.0 2.0 0.00 0.05 0.05 98 1032.3
20260901080602 48 232 2.0 3.0 0.00 0.05 0.05 98 1032.4
20260901080101 48 225 2.0 2.0 0.00 0.05 0.05 98 1032.3
20260901075556 48 238 1.0 2.0 0.00 0.05 0.05 98 1032.4
20260901075055 48 218 0.0 0.0 0.00 0.05 0.05 99 1032.5
20260901074549 48 242 0.0 0.0 0.00 0.05 0.05 99 1032.5
20260901074045 48 241 1.0 1.0 0.00 0.05 0.05 98 1032.7
20260901073541 48 242 1.0 2.0 0.05 0.05 0.05 98 1032.7
20260901073036 49 254 0.0 0.0 0.05 0.05 0.05 97 1032.9
20260901072531 49 253 1.0 2.0 0.00 0.04 0.04 97 1032.7
20260901072026 49 252 0.0 0.0 0.00 0.04 0.04 97 1032.8
20260901071525 48 262 1.0 3.0 0.00 0.04 0.04 96 1032.9
20260901071024 49 247 1.0 2.0 0.00 0.04 0.04 96 1032.8
20260901070519 49 233 2.0 3.0 0.00 0.04 0.04 96 1032.7
20260901070015 49 232 2.0 4.0 0.00 0.04 0.04 96 1032.7
20260901065509 49 250 1.0 2.0 0.00 0.04 0.04 96 1032.5
20260901064958 49 241 2.0 4.0 0.00 0.04 0.04 95 1032.7
20260901064455 49 244 2.0 7.0 0.07 0.04 0.04 95 1032.7
20260901063952 49 241 5.0 8.0 0.19 0.04 0.04 96 1032.9
20260901063448 49 204 3.0 4.0 0.19 0.03 0.03 97 1033.2
20260901062943 48 246 2.0 3.0 0.07 0.01 0.01 98 1033.5
20260901062438 49 238 1.0 2.0 0.00 0.00 0.00 98 1032.9
20260901061929 49 245 1.0 2.0 0.00 0.00 0.00 98 1032.9
20260901061424 49 237 1.0 2.0 0.00 0.00 0.00 98 1033.1
20260901060914 49 234 2.0 2.0 0.00 0.00 0.00 98 1032.9
20260901060409 49 237 1.0 2.0 0.00 0.00 0.00 98 1032.7
20260901055908 49 246 1.0 1.0 0.00 0.12 0.12 98 1033.1
20260901055405 49 231 2.0 2.0 0.00 0.12 0.12 98 1033.1
20260901054901 49 219 2.0 2.0 0.05 0.12 0.12 97 1033.1
20260901054358 49 238 2.0 3.0 0.05 0.12 0.12 97 1033.1
20260901053853 49 229 4.0 6.0 0.00 0.11 0.11 98 1033.9
20260901053349 49 224 2.0 3.0 0.00 0.11 0.11 99 1033.5
20260901052844 49 228 2.0 3.0 0.00 0.11 0.11 99 1033.1
20260901052339 49 239 1.0 2.0 0.00 0.11 0.11 99 1032.9
20260901051838 49 226 2.0 2.0 0.00 0.11 0.11 99 1032.7
20260901051333 49 227 2.0 2.0 0.00 0.11 0.11 99 1033.1
20260901050828 49 224 2.0 2.0 0.00 0.11 0.11 99 1033.1
20260901050319 49 230 2.0 2.0 0.00 0.11 0.11 99 1033.3
20260901045813 49 234 1.0 2.0 0.00 0.11 0.11 99 1033.5
20260901045308 49 223 2.0 3.0 0.00 0.11 0.11 99 1033.3
20260901044803 49 229 2.0 2.0 0.00 0.11 0.11 99 1033.2
20260901044259 49 232 2.0 2.0 0.00 0.11 0.11 99 1033.3
20260901043754 49 219 3.0 3.0 0.00 0.11 0.11 99 1033.3
20260901043250 49 248 1.0 1.0 0.00 0.11 0.11 98 1033.5
20260901042750 49 223 2.0 2.0 0.00 0.11 0.11 98 1033.3
20260901042245 49 235 2.0 2.0 0.00 0.11 0.11 98 1033.3
20260901041740 49 242 1.0 2.0 0.00 0.11 0.11 98 1033.5
20260901041240 49 221 2.0 2.0 0.00 0.11 0.11 98 1033.6
20260901040735 49 230 2.0 2.0 0.00 0.11 0.11 98 1033.5
20260901040233 49 241 2.0 2.0 0.00 0.11 0.11 97 1033.3
20260901035732 49 221 2.0 2.0 0.00 0.11 0.11 97 1033.5
20260901035232 50 224 2.0 3.0 0.00 0.11 0.11 96 1033.5
20260901034731 50 220 2.0 2.0 0.00 0.11 0.11 95 1033.3
20260901034226 51 215 2.0 2.0 0.00 0.11 0.11 92 1033.2
20260901033726 50 274 2.0 3.0 0.00 0.11 0.11 95 1033.2
20260901033220 50 270 1.0 3.0 0.00 0.11 0.11 96 1033.3
20260901032718 50 247 1.0 2.0 0.00 0.11 0.11 97 1033.5
20260901032213 50 246 1.0 1.0 0.00 0.11 0.11 95 1033.3
20260901031708 50 354 2.0 3.0 0.00 0.11 0.11 94 1033.3
20260901031204 50 255 2.0 2.0 0.00 0.11 0.11 93 1033.1
20260901030659 50 232 4.0 4.0 0.00 0.11 0.11 92 1033.2
20260901030158 51 263 1.0 1.0 0.00 0.11 0.11 92 1033.7
20260901025653 50 253 0.0 4.0 0.00 0.11 0.11 88 1033.7
20260901025148 50 243 3.0 7.0 0.00 0.11 0.11 93 1033.7
20260901024648 50 248 0.0 1.0 0.00 0.11 0.11 96 1033.9
20260901024147 50 271 0.0 0.0 0.07 0.11 0.11 94 1033.9
20260901023646 50 259 0.0 2.0 0.07 0.11 0.11 94 1034.5
20260901023141 50 179 4.0 6.0 0.00 0.10 0.10 95 1034.6
20260901022636 50 193 4.0 8.0 0.05 0.10 0.10 95 1034.5
20260901022131 50 248 4.0 7.0 0.12 0.10 0.10 95 1034.5
20260901021621 50 241 4.0 7.0 0.19 0.09 0.09 95 1034.5
20260901021117 50 237 4.0 7.0 0.19 0.07 0.07 95 1034.5
20260901020613 51 252 6.0 8.0 0.19 0.05 0.05 94 1034.5
20260901020108 51 199 5.0 9.0 0.24 0.04 0.04 92 1034.0
20260901015603 52 239 4.0 8.0 0.12 0.02 0.02 90 1034.0
20260901015102 53 206 5.0 7.0 0.00 0.00 0.00 87 1034.0
20260901014557 55 246 8.0 10.0 0.00 0.00 0.00 79 1034.0
20260901014053 56 248 2.0 4.0 0.00 0.00 0.00 74 1033.7
20260901013549 56 195 2.0 3.0 0.00 0.00 0.00 76 1033.7
20260901013044 57 231 2.0 2.0 0.00 0.00 0.00 75 1033.5
20260901012544 57 242 0.0 1.0 0.00 0.00 0.00 69 1033.6
20260901012039 57 247 2.0 2.0 0.00 0.00 0.00 70 1033.2
20260901011536 57 298 2.0 2.0 0.00 0.00 0.00 67 1033.3
20260901011033 57 290 0.0 3.0 0.00 0.00 0.00 68 1033.1
20260901010528 57 296 1.0 4.0 0.00 0.00 0.00 68 1032.7
20260901010028 58 298 2.0 3.0 0.00 0.00 0.00 69 1032.8
20260901005522 58 273 0.0 2.0 0.00 0.00 0.00 69 1032.9
20260901005017 58 316 2.0 2.0 0.00 0.00 0.00 68 1032.9
20260901004512 58 284 2.0 2.0 0.00 0.00 0.00 69 1032.9
20260901004006 58 283 1.0 3.0 0.00 0.00 0.00 69 1032.9
20260901003502 58 281 2.0 2.0 0.00 0.00 0.00 69 1032.9
20260901002959 59 348 4.0 6.0 0.00 0.00 0.00 68 1033.2
20260901002454 59 298 1.0 3.0 0.00 0.00 0.00 68 1033.2
20260901001948 60 304 4.0 8.0 0.00 0.00 0.00 64 1033.3
20260901001444 60 314 1.0 3.0 0.00 0.00 0.00 62 1033.1
20260901000939 61 326 1.0 3.0 0.00 0.00 0.00 63 1033.2
20260901000435 60 276 1.0 2.0 0.00 0.00 0.00 58 1033.3
20260831235933 60 270 0.0 1.0 0.00 0.00 0.00 65 1033.6
20260831235428 61 254 1.0 1.0 0.00 0.00 0.00 63 1033.6
20260831234923 62 352 2.0 3.0 0.00 0.00 0.00 55 1033.6
20260831234418 62 278 0.0 2.0 0.00 0.00 0.00 57 1033.3
20260831233913 63 264 0.0 6.0 0.00 0.00 0.00 52 1033.2
20260831233408 63 318 2.0 8.0 0.00 0.00 0.00 52 1033.2
20260831232904 63 269 0.0 2.0 0.00 0.00 0.00 52 1032.9
20260831232400 63 8 4.0 6.0 0.00 0.00 0.00 52 1032.9
20260831231855 64 19 4.0 6.0 0.00 0.00 0.00 51 1033.1
20260831231352 63 297 1.0 6.0 0.00 0.00 0.00 52 1032.9